P/2017 S5 ( ATLAS )

Japanese version
Home page
Updated on January 8, 2018

---------------------------------------------------------------------

* Profile

Discovery Date September 27, 2017
Magnitude 18.2 mag
Discoverer Asteroid Terrestrial-impact Last Alert System (ATLAS) search program

* Pictures

* Orbital Elements

Epoch 2017 July 26.0 TT = JDT 2457960.5
T 2017 July 27.97143 TT                                 MPCW
q   2.1781464            (2000.0)            P               Q
n   0.17456045     Peri.   99.92248     +0.97101506     +0.13720582
a   3.1708241      Node   252.39371     -0.19730330     +0.92229926
e   0.3130662      Incl.   11.84901     +0.13491170     +0.36130131
P   5.65
From 288 observations 2017 Sept. 1-Nov. 27, mean residual 0".5.

* Magnitudes Graph

        m1 = 13.5 + 5 log d + 10.0 log r

---------------------------------------------------------------------

The orbital elements are published on M.P.E.C. 2017-X08.
The magnitudes graphs are made with Comet for Windows.

---------------------------------------------------------------------

Copyright(C) Seiichi Yoshida (comet@aerith.net). All rights reserved.